OneWeb SL0569

operational
NORAD ID: 55148 Int'l Des: 2023-004 Owner: ONEWEBN Country: UK Constellation: oneweb
LEOCIRCULARPOLARONEWEB_TYPE

About OneWeb SL0569

Description loading...

Live Position

Loading 3D Globe...

Upcoming Passes

Altitude History

Altitude vs Time

uPlot chart will show altitude changes over time

Two-Line Element Set

1 55148U 23004J 25351.24838144 .00000251 00000-0 65256-3 0 9997
2 55148 87.8987 356.3687 0001721 58.3197 301.8100 13.13471204146295
Epoch: Dec 17, 2025 • Age: 8 hours

Current Status

Altitude 1212.6 km
Velocity 7.25 km/s
Sub-Earth Point 20.58°N, 122.18°W
Launch Date Jan 10, 2023
Age 2.9 years
Type internet

Technical Details

Classification Payload
Mass 148.00 kg
Dry Mass 140.00 kg
Total Mass 148.00 kg
Length 1.30 m
Diameter 1.00 m
Span 5.00 m
Shape Trapezoid+2 pan
Manufacturer ONEWUS
Bus Type ARROW
Phase Status In Orbit
Owner/State ONEWEBN/UK

Large Constellations

Loading constellations...